This is the latest recevied weather packets stored in our database for station/object KE8URB. If no packets are shown the sender has not sent any weather packets the latest 10 day(s).
| Time | Temp. | Humidity | Pressure | Rain* | Wind** | Luminosity | Snow |
|---|---|---|---|---|---|---|---|
| 1787797783 | 21.11° C | 84% | 1015.2 hPa | 0 mm | - | 0 W/m² | - |
| 1787797478 | 21.11° C | 83% | 1015.1 hPa | 0 mm | - | 0 W/m² | - |
| 1787797173 | 21.11° C | 83% | 1015.1 hPa | 0 mm | - | 0 W/m² | - |
| 1787796869 | 21.67° C | 81% | 1015 hPa | 0 mm | - | 0 W/m² | - |
| 1787796568 | 22.22° C | 79% | 1014.9 hPa | 0 mm | - | 0 W/m² | - |
| 1787796264 | 22.22° C | 77% | 1015.2 hPa | 0 mm | - | 0 W/m² | - |
| 1787795962 | 21.67° C | 77% | 1015 hPa | 0 mm | - | 0 W/m² | - |
| 1787795657 | 22.22° C | 77% | 1015.1 hPa | 0 mm | - | 0 W/m² | - |
| 1787795352 | 21.67° C | 78% | 1015 hPa | 0 mm | - | 0 W/m² | - |
| 1787795051 | 21.67° C | 79% | 1015 hPa | 0 mm | - | 0 W/m² | - |
| 1787794751 | 21.67° C | 81% | 1015.4 hPa | 0 mm | - | 0 W/m² | - |
| 1787794447 | 22.22° C | 77% | 1015.2 hPa | 0 mm | - | 0 W/m² | - |
| 1787794142 | 22.22° C | 77% | 1015.1 hPa | 0 mm | - | 0 W/m² | - |
| 1787793838 | 21.67° C | 78% | 1015 hPa | 0 mm | - | 0 W/m² | - |
| 1787793533 | 21.67° C | 78% | 1014.9 hPa | 0 mm | - | 0 W/m² | - |
| 1787793233 | 21.67° C | 78% | 1015 hPa | 0 mm | - | 0 W/m² | - |
| 1787792928 | 21.67° C | 77% | 1015.3 hPa | 0 mm | - | 0 W/m² | - |
| 1787792623 | 21.67° C | 79% | 1015.2 hPa | 0 mm | - | 0 W/m² | - |
| 1787792321 | 21.67° C | 78% | 1015.2 hPa | 0 mm | - | 0 W/m² | - |
| 1787792019 | 21.67° C | 78% | 1015.3 hPa | 0 mm | - | 0 W/m² | - |
| 1787791718 | 22.22° C | 78% | 1015.4 hPa | 0 mm | - | 0 W/m² | - |
| 1787791414 | 22.22° C | 77% | 1015.4 hPa | 0 mm | - | 0 W/m² | - |
| 1787791109 | 22.22° C | 77% | 1015.4 hPa | 0 mm | - | 0 W/m² | - |
| 1787790805 | 22.22° C | 77% | 1015.4 hPa | 0 mm | - | 0 W/m² | - |
| 1787790504 | 22.22° C | 77% | 1015.4 hPa | 0 mm | - | 0 W/m² | - |
* Rain latest hour (hover to see other rain measurements)
** Current wind speed in m/s (hover to see current wind gust speed)